• în Republica Moldova
  • Lista ţărilor
  • Pe 7 zile
  • Temperatura apei
  • Hartă satelitară
  • Meteo pe hartă
  • Widget-uri
  • user-avatar
    Intrare

    Meteo pe oră la Lubango

    Astăzi, 29 Mai, Luni

    Timp Temperatura Precipitaţii Vânt Presiune Umiditate
    00:00 +11°C° 0 mm 1 m/s 608 mmHg 53%
    01:00 +11°C° 0 mm 1 m/s 608 mmHg 56%
    02:00 +10°C° 0 mm 1 m/s 608 mmHg 58%
    03:00 +10°C° 0 mm 1 m/s 608 mmHg 60%
    04:00 +10°C° 0 mm 1 m/s 608 mmHg 63%
    05:00 +10°C° 0 mm 1 m/s 608 mmHg 59%
    06:00 +11°C° 0 mm 1 m/s 608 mmHg 55%
    07:00 +13°C° 0 mm 1 m/s 610 mmHg 50%
    08:00 +18°C° 0 mm 1 m/s 611 mmHg 42%
    09:00 +21°C° 0 mm 1 m/s 613 mmHg 33%
    10:00 +25°C° 0 mm 1 m/s 614 mmHg 24%
    11:00 +26°C° 0 mm 1 m/s 614 mmHg 23%
    12:00 +27°C° 0 mm 1 m/s 614 mmHg 22%
    13:00 +28°C° 0 mm 2 m/s 614 mmHg 25%
    14:00 +27°C° 0 mm 2 m/s 614 mmHg 28%
    15:00 +25°C° 0 mm 2 m/s 613 mmHg 32%
    16:00 +24°C° 0 mm 2 m/s 612 mmHg 36%
    17:00 +20°C° 0,1 mm 2 m/s 611 mmHg 42%
    18:00 +18°C° 0,1 mm 1 m/s 610 mmHg 48%
    19:00 +15°C° 0,1 mm 1 m/s 609 mmHg 55%
    20:00 +14°C° 0 mm 1 m/s 610 mmHg 58%
    21:00 +13°C° 0 mm 1 m/s 610 mmHg 61%
    22:00 +13°C° 0 mm 1 m/s 610 mmHg 64%
    23:00 +13°C° 0 mm 1 m/s 610 mmHg 65%

    Mâine, 30 Mai, Marţi

    Timp Temperatura Precipitaţii Vânt Presiune Umiditate
    00:00 +12°C° 0 mm 1 m/s 610 mmHg 67%
    01:00 +12°C° 0 mm 1 m/s 610 mmHg 69%
    02:00 +12°C° 0 mm 1 m/s 609 mmHg 71%
    03:00 +12°C° 0 mm 1 m/s 609 mmHg 72%
    04:00 +12°C° 0 mm 1 m/s 609 mmHg 74%
    05:00 +12°C° 0 mm 1 m/s 609 mmHg 73%
    06:00 +12°C° 0 mm 1 m/s 610 mmHg 73%
    07:00 +13°C° 0 mm 1 m/s 610 mmHg 73%
    08:00 +16°C° 0 mm 2 m/s 611 mmHg 61%
    09:00 +19°C° 0 mm 2 m/s 613 mmHg 49%
    10:00 +24°C° 0 mm 2 m/s 614 mmHg 37%
    11:00 +25°C° 0 mm 2 m/s 614 mmHg 35%
    12:00 +26°C° 0 mm 2 m/s 614 mmHg 32%
    13:00 +27°C° 0 mm 1 m/s 614 mmHg 30%
    14:00 +26°C° 0 mm 1 m/s 613 mmHg 33%
    15:00 +25°C° 0 mm 1 m/s 613 mmHg 37%
    16:00 +24°C° 0 mm 1 m/s 612 mmHg 40%
    17:00 +22°C° 0,1 mm 1 m/s 611 mmHg 44%
    18:00 +20°C° 0,1 mm 1 m/s 611 mmHg 47%
    19:00 +18°C° 0,1 mm 1 m/s 610 mmHg 51%
    20:00 +16°C° 0 mm 1 m/s 610 mmHg 54%
    21:00 +15°C° 0 mm 1 m/s 610 mmHg 58%
    22:00 +15°C° 0 mm 1 m/s 610 mmHg 61%
    23:00 +14°C° 0 mm 1 m/s 610 mmHg 61%

    Poimâine, 31 Mai, Miercuri

    Timp Temperatura Precipitaţii Vânt Presiune Umiditate
    00:00 +14°C° 0 mm 1 m/s 610 mmHg 62%
    01:00 +13°C° 0 mm 1 m/s 610 mmHg 62%
    02:00 +13°C° 0 mm 1 m/s 609 mmHg 63%
    03:00 +13°C° 0 mm 1 m/s 609 mmHg 63%
    04:00 +12°C° 0 mm 1 m/s 609 mmHg 64%
    05:00 +13°C° 0 mm 1 m/s 609 mmHg 62%
    06:00 +13°C° 0 mm 1 m/s 609 mmHg 61%
    07:00 +13°C° 0 mm 2 m/s 610 mmHg 59%
    08:00 +16°C° 0 mm 2 m/s 611 mmHg 50%
    09:00 +20°C° 0 mm 3 m/s 613 mmHg 42%
    10:00 +24°C° 0 mm 3 m/s 615 mmHg 33%
    11:00 +25°C° 0 mm 3 m/s 614 mmHg 30%
    12:00 +26°C° 0 mm 2 m/s 614 mmHg 28%
    13:00 +28°C° 0 mm 2 m/s 614 mmHg 25%
    14:00 +27°C° 0 mm 2 m/s 613 mmHg 28%
    15:00 +26°C° 0 mm 1 m/s 612 mmHg 30%
    16:00 +26°C° 0 mm 1 m/s 612 mmHg 32%
    17:00 +23°C° 0 mm 1 m/s 611 mmHg 36%
    18:00 +21°C° 0 mm 1 m/s 610 mmHg 41%
    19:00 +18°C° 0 mm 1 m/s 610 mmHg 45%
    20:00 +18°C° 0 mm 1 m/s 610 mmHg 46%
    21:00 +18°C° 0 mm 1 m/s 610 mmHg 46%
    22:00 +16°C° 0 mm 1 m/s 611 mmHg 47%
    23:00 +16°C° 0 mm 1 m/s 610 mmHg 48%

    1 Iunie, Joi

    Timp Temperatura Precipitaţii Vânt Presiune Umiditate
    00:00 +15°C° 0 mm 1 m/s 610 mmHg 48%
    01:00 +14°C° 0 mm 2 m/s 610 mmHg 49%
    02:00 +14°C° 0 mm 2 m/s 609 mmHg 48%
    03:00 +13°C° 0 mm 2 m/s 609 mmHg 48%
    04:00 +13°C° 0 mm 2 m/s 609 mmHg 47%
    05:00 +13°C° 0 mm 2 m/s 609 mmHg 47%
    06:00 +13°C° 0 mm 2 m/s 609 mmHg 46%
    07:00 +13°C° 0 mm 2 m/s 610 mmHg 46%
    08:00 +16°C° 0 mm 3 m/s 611 mmHg 39%
    09:00 +19°C° 0 mm 3 m/s 613 mmHg 33%
    10:00 +22°C° 0 mm 3 m/s 614 mmHg 26%
    11:00 +25°C° 0 mm 3 m/s 614 mmHg 25%
    12:00 +26°C° 0 mm 2 m/s 614 mmHg 24%
    13:00 +28°C° 0 mm 2 m/s 614 mmHg 22%
    14:00 +27°C° 0 mm 1 m/s 613 mmHg 24%
    15:00 +26°C° 0 mm 1 m/s 612 mmHg 26%
    16:00 +25°C° 0 mm 1 m/s 612 mmHg 28%
    17:00 +23°C° 0 mm 1 m/s 611 mmHg 33%
    18:00 +20°C° 0 mm 1 m/s 611 mmHg 38%
    19:00 +18°C° 0 mm 1 m/s 610 mmHg 43%
    20:00 +16°C° 0 mm 1 m/s 610 mmHg 48%
    21:00 +15°C° 0 mm 1 m/s 610 mmHg 53%
    22:00 +13°C° 0 mm 0 m/s 610 mmHg 58%
    23:00 +12°C° 0 mm 0 m/s 610 mmHg 58%

    2 Iunie, Vineri

    Timp Temperatura Precipitaţii Vânt Presiune Umiditate
    00:00 +13°C° 0 mm 1 m/s 609 mmHg 59%
    01:00 +12°C° 0 mm 1 m/s 609 mmHg 60%
    02:00 +12°C° 0 mm 1 m/s 608 mmHg 59%
    03:00 +11°C° 0 mm 1 m/s 608 mmHg 59%
    04:00 +11°C° 0 mm 1 m/s 608 mmHg 58%
    05:00 +11°C° 0 mm 1 m/s 608 mmHg 55%
    06:00 +11°C° 0 mm 1 m/s 609 mmHg 53%
    07:00 +12°C° 0 mm 2 m/s 609 mmHg 51%
    08:00 +15°C° 0 mm 2 m/s 611 mmHg 43%
    09:00 +19°C° 0 mm 2 m/s 612 mmHg 35%
    10:00 +23°C° 0 mm 2 m/s 614 mmHg 27%
    11:00 +25°C° 0 mm 2 m/s 614 mmHg 25%
    12:00 +26°C° 0 mm 2 m/s 614 mmHg 23%
    13:00 +27°C° 0 mm 1 m/s 614 mmHg 22%
    14:00 +27°C° 0 mm 1 m/s 613 mmHg 23%
    15:00 +26°C° 0 mm 1 m/s 612 mmHg 25%
    16:00 +25°C° 0 mm 1 m/s 612 mmHg 26%
    17:00 +22°C° 0 mm 1 m/s 611 mmHg 33%
    18:00 +19°C° 0 mm 1 m/s 610 mmHg 41%
    19:00 +14°C° 0 mm 1 m/s 609 mmHg 49%
    20:00 +13°C° 0 mm 1 m/s 609 mmHg 53%
    21:00 +12°C° 0 mm 1 m/s 609 mmHg 57%
    22:00 +11°C° 0 mm 1 m/s 609 mmHg 62%
    23:00 +11°C° 0 mm 1 m/s 609 mmHg 63%

    3 Iunie, Sâmbătă

    Timp Temperatura Precipitaţii Vânt Presiune Umiditate
    00:00 +11°C° 0 mm 1 m/s 608 mmHg 64%
    01:00 +10°C° 0 mm 1 m/s 608 mmHg 66%
    02:00 +10°C° 0 mm 1 m/s 608 mmHg 66%
    03:00 +10°C° 0 mm 1 m/s 608 mmHg 66%
    04:00 +10°C° 0 mm 1 m/s 608 mmHg 66%
    05:00 +10°C° 0 mm 1 m/s 608 mmHg 62%
    06:00 +10°C° 0 mm 1 m/s 609 mmHg 58%
    07:00 +10°C° 0 mm 1 m/s 609 mmHg 55%
    08:00 +15°C° 0 mm 1 m/s 611 mmHg 44%
    09:00 +20°C° 0 mm 1 m/s 613 mmHg 33%
    10:00 +24°C° 0 mm 2 m/s 614 mmHg 23%
    11:00 +25°C° 0 mm 1 m/s 614 mmHg 21%
    12:00 +26°C° 0 mm 1 m/s 614 mmHg 20%
    13:00 +28°C° 0 mm 1 m/s 614 mmHg 19%
    14:00 +27°C° 0 mm 1 m/s 613 mmHg 19%
    15:00 +26°C° 0 mm 1 m/s 613 mmHg 20%
    16:00 +25°C° 0 mm 2 m/s 612 mmHg 21%
    17:00 +21°C° 0 mm 1 m/s 611 mmHg 31%
    18:00 +16°C° 0 mm 1 m/s 610 mmHg 41%
    19:00 +12°C° 0 mm 1 m/s 608 mmHg 51%
    20:00 +12°C° 0 mm 1 m/s 608 mmHg 53%
    21:00 +11°C° 0 mm 1 m/s 608 mmHg 55%
    22:00 +11°C° 0 mm 1 m/s 608 mmHg 57%
    23:00 +10°C° 0 mm 1 m/s 608 mmHg 59%
    Arată mai mult